Time,TemperatureF,DewpointF,PressureIn,WindDirection,WindDirectionDegrees,WindSpeedMPH,WindSpeedGustMPH,Humidity,HourlyPrecipIn,Conditions,Clouds,dailyrainin,SoftwareType,DateUTC
2013-04-17 00:00:00,67.3,56.0,30.17,SE,127,0.0,1.0,67,0.00,,,0.00,WeatherCatV1.11B39,2013-04-17 04:00:00,
2013-04-17 00:01:00,67.3,55.5,30.17,East,86,0.0,1.0,66,0.00,,,0.00,WeatherCatV1.11B39,2013-04-17 04:01:00,
2013-04-17 00:06:00,67.4,56.1,30.16,East,86,0.0,0.0,67,0.00,,,0.00,WeatherCatV1.11B39,2013-04-17 04:06:00,
2013-04-17 00:11:00,67.5,55.7,30.16,SE,136,2.0,2.0,66,0.00,,,0.00,WeatherCatV1.11B39,2013-04-17 04:11:00,
2013-04-17 00:16:00,67.5,55.7,30.16,SSE,159,0.0,1.0,66,0.00,,,0.00,WeatherCatV1.11B39,2013-04-17 04:16:00,
2013-04-17 00:21:00,67.5,55.7,30.16,South,183,1.0,2.0,66,0.00,,,0.00,WeatherCatV1.11B39,2013-04-17 04:21:00,
2013-04-17 00:26:00,67.4,55.6,30.16,SSE,150,0.0,0.0,66,0.00,,,0.00,WeatherCatV1.11B39,2013-04-17 04:26:00,
2013-04-17 00:31:00,67.2,55.4,30.16,SSE,150,0.0,0.0,66,0.00,,,0.00,WeatherCatV1.11B39,2013-04-17 04:31:00,
2013-04-17 00:36:00,67.2,55.9,30.16,SSW,203,0.0,2.0,67,0.00,,,0.00,WeatherCatV1.11B39,2013-04-17 04:36:00,
2013-04-17 00:41:00,67.2,55.9,30.16,ESE,102,0.0,0.0,67,0.00,,,0.00,WeatherCatV1.11B39,2013-04-17 04:41:00,
2013-04-17 00:46:00,67.2,55.9,30.16,ESE,103,0.0,0.0,67,0.00,,,0.00,WeatherCatV1.11B39,2013-04-17 04:46:00,
2013-04-17 00:51:00,67.1,55.8,30.16,ESE,117,0.0,1.0,67,0.00,,,0.00,WeatherCatV1.11B39,2013-04-17 04:51:00,
2013-04-17 00:56:00,67.2,55.4,30.16,East,86,0.0,3.0,66,0.00,,,0.00,WeatherCatV1.11B39,2013-04-17 04:56:00,
2013-04-17 01:01:00,67.3,55.5,30.16,East,98,1.0,1.0,66,0.00,,,0.00,WeatherCatV1.11B39,2013-04-17 05:01:00,
2013-04-17 01:06:00,67.3,56.0,30.16,SE,133,0.0,0.0,67,0.00,,,0.00,WeatherCatV1.11B39,2013-04-17 05:06:00,
2013-04-17 01:11:00,67.2,55.9,30.16,East,89,0.0,1.0,67,0.00,,,0.00,WeatherCatV1.11B39,2013-04-17 05:11:00,
2013-04-17 01:16:00,67.1,55.8,30.16,ESE,116,0.0,0.0,67,0.00,,,0.00,WeatherCatV1.11B39,2013-04-17 05:16:00,
2013-04-17 01:21:00,67.1,55.8,30.16,East,84,0.0,1.0,67,0.00,,,0.00,WeatherCatV1.11B39,2013-04-17 05:21:00,
2013-04-17 01:26:00,66.9,56.0,30.16,East,85,0.0,0.0,68,0.00,,,0.00,WeatherCatV1.11B39,2013-04-17 05:26:00,
2013-04-17 01:31:00,66.6,55.7,30.15,SE,138,0.0,0.0,68,0.00,,,0.00,WeatherCatV1.11B39,2013-04-17 05:31:00,
2013-04-17 01:36:00,66.4,55.9,30.15,SSW,200,1.0,1.0,69,0.00,,,0.00,WeatherCatV1.11B39,2013-04-17 05:36:00,
2013-04-17 01:41:00,66.2,55.7,30.15,SE,133,0.0,0.0,69,0.00,,,0.00,WeatherCatV1.11B39,2013-04-17 05:41:00,
2013-04-17 01:44:00,66.0,55.9,30.15,SE,134,0.0,1.0,70,0.00,,,0.00,WeatherCatV1.11B39,2013-04-17 05:44:00,
2013-04-17 01:46:00,65.9,55.8,30.15,SE,133,0.0,0.0,70,0.00,,,0.00,WeatherCatV1.11B39,2013-04-17 05:46:00,
2013-04-17 01:51:00,65.6,55.5,30.15,ESE,103,0.0,0.0,70,0.00,,,0.00,WeatherCatV1.11B39,2013-04-17 05:51:00,
2013-04-17 01:56:00,65.2,55.6,30.15,ESE,104,0.0,0.0,71,0.00,,,0.00,WeatherCatV1.11B39,2013-04-17 05:56:00,
2013-04-17 02:01:00,64.9,55.7,30.15,East,96,1.0,1.0,72,0.00,,,0.00,WeatherCatV1.11B39,2013-04-17 06:01:00,
2013-04-17 02:06:00,65.1,55.8,30.14,East,96,0.0,0.0,72,0.00,,,0.00,WeatherCatV1.11B39,2013-04-17 06:06:00,
2013-04-17 02:11:00,64.9,55.7,30.14,East,85,0.0,0.0,72,0.00,,,0.00,WeatherCatV1.11B39,2013-04-17 06:11:00,
2013-04-17 02:16:00,64.7,55.5,30.15,East,85,0.0,0.0,72,0.00,,,0.00,WeatherCatV1.11B39,2013-04-17 06:16:00,
2013-04-17 02:21:00,64.5,55.6,30.15,East,85,0.0,0.0,73,0.00,,,0.00,WeatherCatV1.11B39,2013-04-17 06:21:00,
2013-04-17 02:26:00,64.4,55.5,30.14,East,87,0.0,2.0,73,0.00,,,0.00,WeatherCatV1.11B39,2013-04-17 06:26:00,
2013-04-17 02:31:00,64.4,55.5,30.15,ENE,77,0.0,1.0,73,0.00,,,0.00,WeatherCatV1.11B39,2013-04-17 06:31:00,
2013-04-17 02:36:00,64.5,55.6,30.15,NE,53,0.0,2.0,73,0.00,,,0.00,WeatherCatV1.11B39,2013-04-17 06:36:00,
2013-04-17 02:41:00,64.4,55.5,30.15,ENE,58,0.0,0.0,73,0.00,,,0.00,WeatherCatV1.11B39,2013-04-17 06:41:00,
2013-04-17 02:46:00,64.3,55.8,30.15,ENE,65,0.0,0.0,74,0.00,,,0.00,WeatherCatV1.11B39,2013-04-17 06:46:00,
2013-04-17 02:51:00,64.3,55.5,30.15,ENE,65,0.0,0.0,73,0.00,,,0.00,WeatherCatV1.11B39,2013-04-17 06:51:00,
2013-04-17 02:56:00,64.2,55.7,30.16,ENE,65,0.0,0.0,74,0.00,,,0.00,WeatherCatV1.11B39,2013-04-17 06:56:00,
2013-04-17 03:01:00,63.5,55.4,30.16,ENE,65,0.0,0.0,75,0.00,,,0.00,WeatherCatV1.11B39,2013-04-17 07:01:00,
2013-04-17 03:06:00,63.2,55.5,30.16,ENE,65,0.0,0.0,76,0.00,,,0.00,WeatherCatV1.11B39,2013-04-17 07:06:00,
2013-04-17 03:11:00,62.9,55.2,30.16,ENE,65,0.0,0.0,76,0.00,,,0.00,WeatherCatV1.11B39,2013-04-17 07:11:00,
2013-04-17 03:16:00,62.7,55.4,30.16,ENE,65,0.0,0.0,77,0.00,,,0.00,WeatherCatV1.11B39,2013-04-17 07:16:00,
2013-04-17 03:21:00,62.5,55.2,30.16,ENE,65,0.0,0.0,77,0.00,,,0.00,WeatherCatV1.11B39,2013-04-17 07:21:00,
2013-04-17 03:26:00,62.2,55.3,30.16,ENE,65,0.0,0.0,78,0.00,,,0.00,WeatherCatV1.11B39,2013-04-17 07:26:00,
2013-04-17 03:31:00,62.0,55.1,30.16,ENE,65,0.0,0.0,78,0.00,,,0.00,WeatherCatV1.11B39,2013-04-17 07:31:00,
2013-04-17 03:36:00,61.7,55.1,30.16,ENE,65,0.0,0.0,79,0.00,,,0.00,WeatherCatV1.11B39,2013-04-17 07:36:00,
2013-04-17 03:41:00,61.4,55.2,30.16,ENE,65,0.0,0.0,80,0.00,,,0.00,WeatherCatV1.11B39,2013-04-17 07:41:00,
2013-04-17 03:46:00,61.1,55.2,30.16,ENE,65,0.0,0.0,81,0.00,,,0.00,WeatherCatV1.11B39,2013-04-17 07:46:00,
2013-04-17 03:51:00,60.9,55.0,30.16,ENE,65,0.0,0.0,81,0.00,,,0.00,WeatherCatV1.11B39,2013-04-17 07:51:00,
2013-04-17 03:56:00,60.8,55.3,30.16,ENE,65,0.0,0.0,82,0.00,,,0.00,WeatherCatV1.11B39,2013-04-17 07:56:00,
2013-04-17 04:01:00,60.7,55.2,30.16,ENE,65,0.0,0.0,82,0.00,,,0.00,WeatherCatV1.11B39,2013-04-17 08:01:00,
2013-04-17 04:06:00,60.5,55.0,30.16,ENE,65,0.0,0.0,82,0.00,,,0.00,WeatherCatV1.11B39,2013-04-17 08:06:00,
2013-04-17 04:11:00,60.5,55.0,30.16,ENE,65,0.0,0.0,82,0.00,,,0.00,WeatherCatV1.11B39,2013-04-17 08:11:00,
2013-04-17 04:16:00,60.6,55.4,30.15,ENE,65,0.0,0.0,83,0.00,,,0.00,WeatherCatV1.11B39,2013-04-17 08:16:00,
2013-04-17 04:21:00,60.9,55.7,30.15,ENE,70,0.0,1.0,83,0.00,,,0.00,WeatherCatV1.11B39,2013-04-17 08:21:00,
2013-04-17 04:26:00,62.1,55.9,30.14,NE,53,3.0,3.0,80,0.00,,,0.00,WeatherCatV1.11B39,2013-04-17 08:26:00,
2013-04-17 04:31:00,63.1,55.8,30.15,ENE,73,0.0,1.0,77,0.00,,,0.00,WeatherCatV1.11B39,2013-04-17 08:31:00,
2013-04-17 04:36:00,63.0,55.7,30.15,SE,128,0.0,1.0,77,0.00,,,0.00,WeatherCatV1.11B39,2013-04-17 08:36:00,
2013-04-17 04:41:00,61.6,55.0,30.15,SE,128,0.0,0.0,79,0.00,,,0.00,WeatherCatV1.11B39,2013-04-17 08:41:00,
2013-04-17 04:46:00,60.7,54.8,30.15,SE,128,0.0,0.0,81,0.00,,,0.00,WeatherCatV1.11B39,2013-04-17 08:46:00,
2013-04-17 04:51:00,60.3,54.8,30.15,SE,128,0.0,0.0,82,0.00,,,0.00,WeatherCatV1.11B39,2013-04-17 08:51:00,
2013-04-17 04:56:00,60.0,54.8,30.15,SE,127,0.0,0.0,83,0.00,,,0.00,WeatherCatV1.11B39,2013-04-17 08:56:00,
2013-04-17 05:01:00,59.9,54.7,30.15,SE,127,0.0,0.0,83,0.00,,,0.00,WeatherCatV1.11B39,2013-04-17 09:01:00,
2013-04-17 05:06:00,59.7,54.9,30.15,SE,127,0.0,0.0,84,0.00,,,0.00,WeatherCatV1.11B39,2013-04-17 09:06:00,
2013-04-17 05:11:00,59.6,54.8,30.15,SE,128,0.0,0.0,84,0.00,,,0.00,WeatherCatV1.11B39,2013-04-17 09:11:00,
2013-04-17 05:16:00,59.3,54.8,30.15,SE,127,0.0,0.0,85,0.00,,,0.00,WeatherCatV1.11B39,2013-04-17 09:16:00,
2013-04-17 05:21:00,59.2,54.7,30.14,SE,127,0.0,0.0,85,0.00,,,0.00,WeatherCatV1.11B39,2013-04-17 09:21:00,
2013-04-17 05:26:00,59.1,54.9,30.15,SE,127,0.0,0.0,86,0.00,,,0.00,WeatherCatV1.11B39,2013-04-17 09:26:00,
2013-04-17 05:31:00,59.1,54.9,30.15,SE,127,0.0,0.0,86,0.00,,,0.00,WeatherCatV1.11B39,2013-04-17 09:31:00,
2013-04-17 05:36:00,59.2,55.0,30.15,SE,127,0.0,0.0,86,0.00,,,0.00,WeatherCatV1.11B39,2013-04-17 09:36:00,
2013-04-17 05:41:00,59.1,54.9,30.15,SE,127,0.0,0.0,86,0.00,,,0.00,WeatherCatV1.11B39,2013-04-17 09:41:00,
2013-04-17 05:46:00,59.1,54.9,30.16,SE,126,0.0,0.0,86,0.00,,,0.00,WeatherCatV1.11B39,2013-04-17 09:46:00,
2013-04-17 05:51:00,59.3,55.1,30.16,SE,127,0.0,0.0,86,0.00,,,0.00,WeatherCatV1.11B39,2013-04-17 09:51:00,
2013-04-17 05:56:00,59.2,55.0,30.17,SE,127,0.0,0.0,86,0.00,,,0.00,WeatherCatV1.11B39,2013-04-17 09:56:00,
2013-04-17 06:01:00,59.2,54.7,30.18,WNW,298,1.0,4.0,85,0.00,,,0.00,WeatherCatV1.11B39,2013-04-17 10:01:00,
2013-04-17 06:06:00,59.4,55.5,30.18,East,98,0.0,1.0,87,0.00,,,0.00,WeatherCatV1.11B39,2013-04-17 10:06:00,
2013-04-17 06:11:00,59.4,55.5,30.18,East,98,0.0,0.0,87,0.00,,,0.00,WeatherCatV1.11B39,2013-04-17 10:11:00,
2013-04-17 06:16:00,59.5,55.6,30.17,East,97,0.0,0.0,87,0.00,,,0.00,WeatherCatV1.11B39,2013-04-17 10:16:00,
2013-04-17 06:21:00,59.5,55.9,30.17,East,97,0.0,0.0,88,0.00,,,0.00,WeatherCatV1.11B39,2013-04-17 10:21:00,
2013-04-17 06:26:00,59.5,56.3,30.18,East,97,0.0,0.0,89,0.00,,,0.00,WeatherCatV1.11B39,2013-04-17 10:26:00,
2013-04-17 06:31:00,59.5,56.3,30.17,East,97,0.0,0.0,89,0.00,,,0.00,WeatherCatV1.11B39,2013-04-17 10:31:00,
2013-04-17 06:36:00,59.7,56.4,30.17,East,97,0.0,0.0,89,0.00,,,0.00,WeatherCatV1.11B39,2013-04-17 10:36:00,
2013-04-17 06:41:00,59.9,56.6,30.17,East,97,0.0,0.0,89,0.00,,,0.00,WeatherCatV1.11B39,2013-04-17 10:41:00,
2013-04-17 06:46:00,60.0,56.7,30.18,East,98,0.0,0.0,89,0.00,,,0.00,WeatherCatV1.11B39,2013-04-17 10:46:00,
2013-04-17 06:51:00,60.1,57.2,30.18,East,98,0.0,0.0,90,0.00,,,0.00,WeatherCatV1.11B39,2013-04-17 10:51:00,
2013-04-17 06:56:00,60.1,57.2,30.19,East,98,0.0,0.0,90,0.00,,,0.00,WeatherCatV1.11B39,2013-04-17 10:56:00,
2013-04-17 07:01:00,59.7,56.4,30.20,East,97,0.0,0.0,89,0.00,,,0.00,WeatherCatV1.11B39,2013-04-17 11:01:00,
2013-04-17 07:06:00,59.5,56.6,30.20,East,98,0.0,0.0,90,0.00,,,0.00,WeatherCatV1.11B39,2013-04-17 11:06:00,
2013-04-17 07:11:00,59.3,56.4,30.20,East,98,0.0,0.0,90,0.00,,,0.00,WeatherCatV1.11B39,2013-04-17 11:11:00,
2013-04-17 07:16:00,59.3,57.0,30.20,East,97,0.0,0.0,92,1.70,,,0.06,WeatherCatV1.11B39,2013-04-17 11:16:00,
2013-04-17 07:21:00,59.0,57.0,30.19,East,96,0.0,0.0,93,0.51,,,0.14,WeatherCatV1.11B39,2013-04-17 11:21:00,
2013-04-17 07:26:00,59.0,57.3,30.20,East,96,0.0,0.0,94,0.56,,,0.19,WeatherCatV1.11B39,2013-04-17 11:26:00,
2013-04-17 07:31:00,58.9,57.2,30.20,East,96,0.0,0.0,94,0.15,,,0.20,WeatherCatV1.11B39,2013-04-17 11:31:00,
2013-04-17 07:36:00,58.8,57.1,30.19,East,96,0.0,0.0,94,0.07,,,0.21,WeatherCatV1.11B39,2013-04-17 11:36:00,
2013-04-17 07:41:00,58.8,57.4,30.19,East,96,0.0,0.0,95,0.07,,,0.21,WeatherCatV1.11B39,2013-04-17 11:41:00,
2013-04-17 07:46:00,58.9,57.5,30.19,East,96,0.0,0.0,95,0.07,,,0.22,WeatherCatV1.11B39,2013-04-17 11:46:00,
2013-04-17 07:51:00,59.1,58.0,30.19,East,79,0.0,0.0,96,0.07,,,0.22,WeatherCatV1.11B39,2013-04-17 11:51:00,
2013-04-17 07:56:00,59.4,58.3,30.18,ENE,69,0.0,0.0,96,0.08,,,0.23,WeatherCatV1.11B39,2013-04-17 11:56:00,
2013-04-17 08:01:00,59.6,58.5,30.19,ENE,57,4.0,4.0,96,0.06,,,0.23,WeatherCatV1.11B39,2013-04-17 12:01:00,
2013-04-17 08:06:00,59.6,57.9,30.19,ENE,72,2.0,7.0,94,0.06,,,0.24,WeatherCatV1.11B39,2013-04-17 12:06:00,
2013-04-17 08:11:00,59.4,57.7,30.19,NNE,23,4.0,8.0,94,0.06,,,0.24,WeatherCatV1.11B39,2013-04-17 12:11:00,
2013-04-17 08:16:00,59.2,57.5,30.19,ENE,63,3.0,6.0,94,0.04,,,0.24,WeatherCatV1.11B39,2013-04-17 12:16:00,
2013-04-17 08:21:00,59.1,57.4,30.19,NE,51,2.0,5.0,94,0.00,,,0.24,WeatherCatV1.11B39,2013-04-17 12:21:00,
2013-04-17 08:26:00,59.1,57.4,30.19,NE,50,4.0,7.0,94,0.00,,,0.24,WeatherCatV1.11B39,2013-04-17 12:26:00,
2013-04-17 08:31:00,59.1,57.4,30.19,NNE,31,7.0,9.0,94,0.00,,,0.24,WeatherCatV1.11B39,2013-04-17 12:31:00,
2013-04-17 08:36:00,59.0,57.6,30.19,NE,41,2.0,4.0,95,0.00,,,0.24,WeatherCatV1.11B39,2013-04-17 12:36:00,
2013-04-17 08:41:00,59.1,57.7,30.20,ENE,58,0.0,3.0,95,0.00,,,0.24,WeatherCatV1.11B39,2013-04-17 12:41:00,
2013-04-17 08:46:00,59.4,58.0,30.19,ENE,58,0.0,1.0,95,0.00,,,0.24,WeatherCatV1.11B39,2013-04-17 12:46:00,
2013-04-17 08:51:00,59.6,58.2,30.20,East,92,0.0,1.0,95,0.00,,,0.24,WeatherCatV1.11B39,2013-04-17 12:51:00,
2013-04-17 08:56:00,59.6,57.9,30.20,East,79,0.0,2.0,94,0.00,,,0.24,WeatherCatV1.11B39,2013-04-17 12:56:00,
2013-04-17 09:01:00,59.7,58.3,30.19,SE,129,0.0,0.0,95,0.00,,,0.24,WeatherCatV1.11B39,2013-04-17 13:01:00,
2013-04-17 09:06:00,60.0,58.6,30.19,East,91,2.0,5.0,95,0.00,,,0.24,WeatherCatV1.11B39,2013-04-17 13:06:00,
2013-04-17 09:11:00,60.1,58.4,30.19,ENE,74,0.0,1.0,94,0.00,,,0.24,WeatherCatV1.11B39,2013-04-17 13:11:00,
2013-04-17 09:16:00,60.5,59.1,30.19,East,100,0.0,1.0,95,0.00,,,0.24,WeatherCatV1.11B39,2013-04-17 13:16:00,
2013-04-17 09:21:00,60.7,59.3,30.19,SSE,157,0.0,0.0,95,0.00,,,0.24,WeatherCatV1.11B39,2013-04-17 13:21:00,
2013-04-17 09:26:00,60.8,59.4,30.19,SSE,157,0.0,0.0,95,0.00,,,0.24,WeatherCatV1.11B39,2013-04-17 13:26:00,
2013-04-17 09:31:00,61.2,59.8,30.19,SE,136,0.0,0.0,95,0.00,,,0.24,WeatherCatV1.11B39,2013-04-17 13:31:00,
2013-04-17 09:36:00,61.6,60.4,30.19,SE,136,0.0,0.0,96,0.00,,,0.24,WeatherCatV1.11B39,2013-04-17 13:36:00,
2013-04-17 09:41:00,61.5,59.8,30.18,SE,136,0.0,0.0,94,0.00,,,0.24,WeatherCatV1.11B39,2013-04-17 13:41:00,
2013-04-17 09:46:00,61.8,60.3,30.18,SE,136,0.0,0.0,95,0.00,,,0.24,WeatherCatV1.11B39,2013-04-17 13:46:00,
2013-04-17 09:51:00,61.9,60.2,30.19,SE,124,0.0,0.0,94,0.00,,,0.24,WeatherCatV1.11B39,2013-04-17 13:51:00,
2013-04-17 09:56:00,62.2,60.4,30.18,SE,124,0.0,0.0,94,0.00,,,0.24,WeatherCatV1.11B39,2013-04-17 13:56:00,
2013-04-17 10:01:00,62.4,60.3,30.18,SE,124,0.0,0.0,93,0.00,,,0.24,WeatherCatV1.11B39,2013-04-17 14:01:00,
2013-04-17 10:06:00,62.6,60.2,30.18,East,89,0.0,0.0,92,0.00,,,0.24,WeatherCatV1.11B39,2013-04-17 14:06:00,
2013-04-17 10:11:00,62.9,60.5,30.18,ESE,110,0.0,1.0,92,0.00,,,0.24,WeatherCatV1.11B39,2013-04-17 14:11:00,
2013-04-17 10:16:00,63.2,61.1,30.18,ESE,109,0.0,0.0,93,0.00,,,0.24,WeatherCatV1.11B39,2013-04-17 14:16:00,
2013-04-17 10:21:00,63.5,60.5,30.18,ESE,109,0.0,0.0,90,0.00,,,0.24,WeatherCatV1.11B39,2013-04-17 14:21:00,
2013-04-17 10:26:00,63.9,60.9,30.18,ESE,109,0.0,0.0,90,0.00,,,0.24,WeatherCatV1.11B39,2013-04-17 14:26:00,
2013-04-17 10:31:00,64.1,61.1,30.18,ESE,109,0.0,0.0,90,0.00,,,0.24,WeatherCatV1.11B39,2013-04-17 14:31:00,
2013-04-17 10:36:00,64.2,61.2,30.18,ESE,110,0.0,0.0,90,0.00,,,0.24,WeatherCatV1.11B39,2013-04-17 14:36:00,
2013-04-17 10:41:00,64.3,61.6,30.18,ESE,110,0.0,0.0,91,0.00,,,0.24,WeatherCatV1.11B39,2013-04-17 14:41:00,
2013-04-17 10:46:00,64.4,61.1,30.18,ESE,110,0.0,0.0,89,0.00,,,0.24,WeatherCatV1.11B39,2013-04-17 14:46:00,
2013-04-17 10:51:00,64.6,61.3,30.18,ESE,110,0.0,0.0,89,0.00,,,0.24,WeatherCatV1.11B39,2013-04-17 14:51:00,
2013-04-17 10:56:00,64.8,61.8,30.19,South,172,0.0,3.0,90,0.00,,,0.24,WeatherCatV1.11B39,2013-04-17 14:56:00,
2013-04-17 11:01:00,64.5,60.5,30.19,East,98,0.0,5.0,87,0.00,,,0.24,WeatherCatV1.11B39,2013-04-17 15:01:00,
2013-04-17 11:06:00,64.0,60.4,30.19,SE,135,0.0,1.0,88,0.00,,,0.24,WeatherCatV1.11B39,2013-04-17 15:06:00,
2013-04-17 11:11:00,63.7,60.4,30.19,SSW,199,1.0,2.0,89,0.00,,,0.24,WeatherCatV1.11B39,2013-04-17 15:11:00,
2013-04-17 11:16:00,63.8,60.5,30.19,SSW,197,0.0,0.0,89,0.00,,,0.24,WeatherCatV1.11B39,2013-04-17 15:16:00,
2013-04-17 11:21:00,64.0,60.4,30.19,SSE,148,0.0,0.0,88,0.00,,,0.24,WeatherCatV1.11B39,2013-04-17 15:21:00,
2013-04-17 11:26:00,64.5,60.5,30.19,SE,131,0.0,1.0,87,0.00,,,0.24,WeatherCatV1.11B39,2013-04-17 15:26:00,
2013-04-17 11:31:00,64.9,60.6,30.19,ESE,110,0.0,0.0,86,0.00,,,0.24,WeatherCatV1.11B39,2013-04-17 15:31:00,
2013-04-17 11:36:00,65.7,61.7,30.19,SE,141,0.0,1.0,87,0.00,,,0.24,WeatherCatV1.11B39,2013-04-17 15:36:00,
2013-04-17 11:41:00,66.4,61.1,30.19,East,94,0.0,1.0,83,0.00,,,0.24,WeatherCatV1.11B39,2013-04-17 15:41:00,
2013-04-17 11:46:00,66.6,61.6,30.19,East,97,0.0,0.0,84,0.00,,,0.24,WeatherCatV1.11B39,2013-04-17 15:46:00,
2013-04-17 11:51:00,67.1,61.8,30.19,ESE,113,0.0,1.0,83,0.00,,,0.24,WeatherCatV1.11B39,2013-04-17 15:51:00,
2013-04-17 11:56:00,67.6,62.2,30.18,SE,144,1.0,2.0,83,0.00,,,0.24,WeatherCatV1.11B39,2013-04-17 15:56:00,
2013-04-17 12:01:00,68.4,62.3,30.18,SE,135,0.0,0.0,81,0.00,,,0.24,WeatherCatV1.11B39,2013-04-17 16:01:00,
2013-04-17 12:06:00,69.2,62.4,30.18,ESE,116,0.0,1.0,79,0.00,,,0.24,WeatherCatV1.11B39,2013-04-17 16:06:00,
2013-04-17 12:11:00,69.6,61.3,30.18,South,187,1.0,3.0,75,0.00,,,0.24,WeatherCatV1.11B39,2013-04-17 16:11:00,
2013-04-17 12:16:00,69.6,62.4,30.17,ESE,111,0.0,1.0,78,0.00,,,0.24,WeatherCatV1.11B39,2013-04-17 16:16:00,
2013-04-17 12:21:00,70.4,63.2,30.17,ESE,115,1.0,1.0,78,0.00,,,0.24,WeatherCatV1.11B39,2013-04-17 16:21:00,
2013-04-17 12:26:00,71.5,62.0,30.17,ESE,117,2.0,2.0,72,0.00,,,0.24,WeatherCatV1.11B39,2013-04-17 16:26:00,
2013-04-17 12:31:00,71.7,61.0,30.17,ESE,120,0.0,1.0,69,0.00,,,0.24,WeatherCatV1.11B39,2013-04-17 16:31:00,
2013-04-17 12:36:00,72.3,60.3,30.16,SW,227,1.0,5.0,66,0.00,,,0.24,WeatherCatV1.11B39,2013-04-17 16:36:00,
2013-04-17 12:41:00,72.4,59.1,30.16,South,184,1.0,4.0,63,0.00,,,0.24,WeatherCatV1.11B39,2013-04-17 16:41:00,
2013-04-17 12:46:00,72.0,60.0,30.16,SSE,148,0.0,3.0,66,0.00,,,0.24,WeatherCatV1.11B39,2013-04-17 16:46:00,
2013-04-17 12:51:00,72.4,60.8,30.16,SSE,153,1.0,2.0,67,0.00,,,0.24,WeatherCatV1.11B39,2013-04-17 16:51:00,
2013-04-17 12:56:00,73.0,60.1,30.16,ESE,105,0.0,1.0,64,0.00,,,0.24,WeatherCatV1.11B39,2013-04-17 16:56:00,
2013-04-17 13:01:00,73.2,61.1,30.16,ESE,117,0.0,0.0,66,0.00,,,0.24,WeatherCatV1.11B39,2013-04-17 17:01:00,
2013-04-17 13:06:00,72.5,60.0,30.16,WSW,257,0.0,8.0,65,0.00,,,0.24,WeatherCatV1.11B39,2013-04-17 17:06:00,
2013-04-17 13:11:00,71.6,60.0,30.17,SE,135,0.0,3.0,67,0.00,,,0.24,WeatherCatV1.11B39,2013-04-17 17:11:00,
2013-04-17 13:16:00,69.7,58.7,30.17,SW,214,1.0,6.0,68,0.00,,,0.24,WeatherCatV1.11B39,2013-04-17 17:16:00,
2013-04-17 13:21:00,67.9,58.1,30.17,SSE,148,1.0,3.0,71,0.00,,,0.24,WeatherCatV1.11B39,2013-04-17 17:21:00,
2013-04-17 13:26:00,66.8,57.9,30.18,SSW,204,1.0,6.0,73,0.00,,,0.24,WeatherCatV1.11B39,2013-04-17 17:26:00,
2013-04-17 13:31:00,66.3,57.8,30.17,SE,126,0.0,6.0,74,0.00,,,0.24,WeatherCatV1.11B39,2013-04-17 17:31:00,
2013-04-17 13:36:00,66.2,58.4,30.18,SSE,152,1.0,4.0,76,0.00,,,0.24,WeatherCatV1.11B39,2013-04-17 17:36:00,
2013-04-17 13:41:00,65.7,57.9,30.18,SSW,209,3.0,3.0,76,0.00,,,0.24,WeatherCatV1.11B39,2013-04-17 17:41:00,
2013-04-17 13:46:00,65.2,57.8,30.18,SW,218,2.0,5.0,77,0.00,,,0.24,WeatherCatV1.11B39,2013-04-17 17:46:00,
2013-04-17 13:52:00,64.8,58.1,30.18,SE,136,0.0,1.0,79,0.00,,,0.24,WeatherCatV1.11B39,2013-04-17 17:52:00,
2013-04-17 13:57:00,64.5,58.9,30.18,South,172,0.0,2.0,82,0.00,,,0.24,WeatherCatV1.11B39,2013-04-17 17:57:00,
2013-04-17 14:02:00,63.9,59.6,30.17,SE,125,0.0,1.0,86,0.00,,,0.25,WeatherCatV1.11B39,2013-04-17 18:02:00,
2013-04-17 14:07:00,63.4,59.8,30.18,NE,48,0.0,1.0,88,0.18,,,0.27,WeatherCatV1.11B39,2013-04-17 18:07:00,
2013-04-17 14:12:00,63.3,60.3,30.18,ENE,73,0.0,1.0,90,0.11,,,0.27,WeatherCatV1.11B39,2013-04-17 18:12:00,
2013-04-17 14:17:00,63.3,60.3,30.18,ESE,119,0.0,1.0,90,0.06,,,0.27,WeatherCatV1.11B39,2013-04-17 18:17:00,
2013-04-17 14:22:00,63.4,60.7,30.18,ESE,119,0.0,1.0,91,0.04,,,0.27,WeatherCatV1.11B39,2013-04-17 18:22:00,
2013-04-17 14:27:00,63.5,60.5,30.18,ESE,120,0.0,1.0,90,0.00,,,0.27,WeatherCatV1.11B39,2013-04-17 18:27:00,
2013-04-17 14:32:00,63.6,60.9,30.18,East,101,0.0,1.0,91,0.00,,,0.27,WeatherCatV1.11B39,2013-04-17 18:32:00,
2013-04-17 14:37:00,64.0,61.3,30.18,East,101,0.0,0.0,91,0.00,,,0.27,WeatherCatV1.11B39,2013-04-17 18:37:00,
2013-04-17 14:42:00,64.4,61.1,30.17,ESE,103,0.0,2.0,89,0.00,,,0.27,WeatherCatV1.11B39,2013-04-17 18:42:00,
2013-04-17 14:47:00,65.2,62.2,30.17,SSE,155,0.0,2.0,90,0.00,,,0.27,WeatherCatV1.11B39,2013-04-17 18:47:00,
2013-04-17 14:52:00,66.2,62.5,30.17,ESE,111,0.0,0.0,88,0.00,,,0.27,WeatherCatV1.11B39,2013-04-17 18:52:00,
2013-04-17 14:57:00,67.5,62.8,30.17,ESE,123,1.0,5.0,85,0.00,,,0.27,WeatherCatV1.11B39,2013-04-17 18:57:00,
2013-04-17 15:02:00,68.3,60.8,30.16,SSE,167,0.0,3.0,77,0.00,,,0.27,WeatherCatV1.11B39,2013-04-17 19:02:00,
2013-04-17 15:07:00,68.4,60.5,30.16,SE,131,1.0,2.0,76,0.00,,,0.27,WeatherCatV1.11B39,2013-04-17 19:07:00,
2013-04-17 15:12:00,68.8,61.3,30.15,East,88,0.0,2.0,77,0.00,,,0.27,WeatherCatV1.11B39,2013-04-17 19:12:00,
2013-04-17 15:17:00,69.4,60.4,30.15,ESE,108,0.0,0.0,73,0.00,,,0.27,WeatherCatV1.11B39,2013-04-17 19:17:00,
2013-04-17 15:22:00,70.6,61.5,30.14,WNW,285,1.0,4.0,73,0.00,,,0.27,WeatherCatV1.11B39,2013-04-17 19:22:00,
2013-04-17 15:27:00,70.7,60.8,30.14,ESE,104,2.0,3.0,71,0.00,,,0.27,WeatherCatV1.11B39,2013-04-17 19:27:00,
2013-04-17 15:32:00,70.9,59.8,30.14,East,88,0.0,1.0,68,0.00,,,0.27,WeatherCatV1.11B39,2013-04-17 19:32:00,
2013-04-17 15:37:00,71.1,60.4,30.14,ENE,78,0.0,0.0,69,0.00,,,0.27,WeatherCatV1.11B39,2013-04-17 19:37:00,
2013-04-17 15:42:00,71.0,59.1,30.13,ESE,117,0.0,1.0,66,0.00,,,0.27,WeatherCatV1.11B39,2013-04-17 19:42:00,
2013-04-17 15:47:00,71.3,59.3,30.13,SSE,163,0.0,2.0,66,0.00,,,0.27,WeatherCatV1.11B39,2013-04-17 19:47:00,
2013-04-17 15:52:00,71.0,59.9,30.13,ESE,110,0.0,1.0,68,0.00,,,0.27,WeatherCatV1.11B39,2013-04-17 19:52:00,
2013-04-17 15:57:00,71.0,58.6,30.13,NE,46,0.0,3.0,65,0.00,,,0.27,WeatherCatV1.11B39,2013-04-17 19:57:00,
2013-04-17 16:02:00,71.4,58.1,30.13,East,90,0.0,1.0,63,0.00,,,0.27,WeatherCatV1.11B39,2013-04-17 20:02:00,
2013-04-17 16:07:00,72.3,59.9,30.13,NNE,20,1.0,3.0,65,0.00,,,0.27,WeatherCatV1.11B39,2013-04-17 20:07:00,
2013-04-17 16:12:00,72.3,59.9,30.13,NE,55,1.0,6.0,65,0.00,,,0.27,WeatherCatV1.11B39,2013-04-17 20:12:00,
2013-04-17 16:17:00,72.1,60.9,30.12,NE,49,1.0,6.0,68,0.00,,,0.27,WeatherCatV1.11B39,2013-04-17 20:17:00,
2013-04-17 16:22:00,72.2,61.0,30.12,SSE,153,2.0,2.0,68,0.00,,,0.27,WeatherCatV1.11B39,2013-04-17 20:22:00,
2013-04-17 16:27:00,72.2,60.6,30.12,NE,35,5.0,6.0,67,0.00,,,0.27,WeatherCatV1.11B39,2013-04-17 20:27:00,
2013-04-17 16:32:00,71.5,60.8,30.12,North,9,6.0,6.0,69,0.00,,,0.27,WeatherCatV1.11B39,2013-04-17 20:32:00,
2013-04-17 16:37:00,71.2,60.5,30.11,ENE,63,6.0,7.0,69,0.00,,,0.27,WeatherCatV1.11B39,2013-04-17 20:37:00,
2013-04-17 16:42:00,70.9,60.6,30.11,NE,46,1.0,4.0,70,0.00,,,0.27,WeatherCatV1.11B39,2013-04-17 20:42:00,
2013-04-17 16:47:00,70.5,61.0,30.10,ENE,58,2.0,4.0,72,0.00,,,0.27,WeatherCatV1.11B39,2013-04-17 20:47:00,
2013-04-17 16:52:00,69.9,60.1,30.10,SE,128,2.0,4.0,71,0.00,,,0.27,WeatherCatV1.11B39,2013-04-17 20:52:00,
2013-04-17 16:57:00,69.4,60.0,30.10,East,94,0.0,5.0,72,0.00,,,0.27,WeatherCatV1.11B39,2013-04-17 20:57:00,
2013-04-17 17:02:00,69.1,60.1,30.10,ENE,70,0.0,4.0,73,0.00,,,0.27,WeatherCatV1.11B39,2013-04-17 21:02:00,
2013-04-17 17:07:00,69.1,59.3,30.10,SE,126,1.0,1.0,71,0.00,,,0.27,WeatherCatV1.11B39,2013-04-17 21:07:00,
2013-04-17 17:12:00,69.0,58.8,30.10,ENE,57,1.0,4.0,70,0.00,,,0.27,WeatherCatV1.11B39,2013-04-17 21:12:00,
2013-04-17 17:17:00,69.1,58.9,30.10,East,84,1.0,3.0,70,0.00,,,0.27,WeatherCatV1.11B39,2013-04-17 21:17:00,
2013-04-17 17:22:00,69.2,59.0,30.10,ESE,108,0.0,0.0,70,0.00,,,0.27,WeatherCatV1.11B39,2013-04-17 21:22:00,
2013-04-17 17:27:00,69.2,59.0,30.10,ENE,77,0.0,1.0,70,0.00,,,0.27,WeatherCatV1.11B39,2013-04-17 21:27:00,
2013-04-17 17:32:00,69.3,59.1,30.10,ESE,116,0.0,2.0,70,0.00,,,0.27,WeatherCatV1.11B39,2013-04-17 21:32:00,
2013-04-17 17:37:00,69.3,58.7,30.10,ENE,70,0.0,5.0,69,0.00,,,0.27,WeatherCatV1.11B39,2013-04-17 21:37:00,
2013-04-17 17:42:00,69.2,58.6,30.10,East,83,0.0,1.0,69,0.00,,,0.27,WeatherCatV1.11B39,2013-04-17 21:42:00,
2013-04-17 17:47:00,69.0,59.2,30.10,SE,145,1.0,1.0,71,0.00,,,0.27,WeatherCatV1.11B39,2013-04-17 21:47:00,
2013-04-17 17:52:00,68.9,58.7,30.10,ENE,62,0.0,4.0,70,0.00,,,0.27,WeatherCatV1.11B39,2013-04-17 21:52:00,
2013-04-17 17:57:00,69.0,59.2,30.09,East,96,0.0,2.0,71,0.00,,,0.27,WeatherCatV1.11B39,2013-04-17 21:57:00,
2013-04-17 18:02:00,69.0,59.2,30.09,East,97,1.0,1.0,71,0.00,,,0.27,WeatherCatV1.11B39,2013-04-17 22:02:00,
2013-04-17 18:07:00,68.7,58.9,30.09,SE,143,0.0,1.0,71,0.00,,,0.27,WeatherCatV1.11B39,2013-04-17 22:07:00,
2013-04-17 18:12:00,68.6,58.8,30.09,East,101,1.0,2.0,71,0.00,,,0.27,WeatherCatV1.11B39,2013-04-17 22:12:00,
2013-04-17 18:17:00,68.5,59.1,30.09,ENE,65,0.0,2.0,72,0.00,,,0.27,WeatherCatV1.11B39,2013-04-17 22:17:00,
2013-04-17 18:22:00,68.5,59.1,30.08,ESE,108,0.0,1.0,72,0.00,,,0.27,WeatherCatV1.11B39,2013-04-17 22:22:00,
2013-04-17 18:27:00,68.5,59.5,30.08,ESE,109,0.0,0.0,73,0.00,,,0.27,WeatherCatV1.11B39,2013-04-17 22:27:00,
2013-04-17 18:32:00,68.5,60.3,30.08,ESE,109,0.0,0.0,75,0.00,,,0.27,WeatherCatV1.11B39,2013-04-17 22:32:00,
2013-04-17 18:37:00,68.5,59.5,30.08,ESE,109,0.0,0.0,73,0.00,,,0.27,WeatherCatV1.11B39,2013-04-17 22:37:00,
2013-04-17 18:42:00,68.4,59.8,30.08,ESE,110,0.0,0.0,74,0.00,,,0.27,WeatherCatV1.11B39,2013-04-17 22:42:00,
2013-04-17 18:47:00,68.4,60.2,30.08,ESE,110,0.0,0.0,75,0.00,,,0.27,WeatherCatV1.11B39,2013-04-17 22:47:00,
2013-04-17 18:52:00,68.2,59.6,30.08,ESE,110,0.0,0.0,74,0.00,,,0.27,WeatherCatV1.11B39,2013-04-17 22:52:00,
2013-04-17 18:57:00,68.1,59.5,30.08,ESE,110,1.0,1.0,74,0.00,,,0.27,WeatherCatV1.11B39,2013-04-17 22:57:00,
2013-04-17 19:02:00,67.9,59.3,30.08,ESE,110,0.0,0.0,74,0.00,,,0.27,WeatherCatV1.11B39,2013-04-17 23:02:00,
2013-04-17 19:07:00,67.6,59.8,30.08,ESE,110,0.0,1.0,76,0.00,,,0.27,WeatherCatV1.11B39,2013-04-17 23:07:00,
2013-04-17 19:12:00,67.4,59.9,30.08,ESE,110,0.0,0.0,77,0.00,,,0.27,WeatherCatV1.11B39,2013-04-17 23:12:00,
2013-04-17 19:17:00,67.2,59.4,30.08,ESE,110,0.0,0.0,76,0.00,,,0.27,WeatherCatV1.11B39,2013-04-17 23:17:00,
2013-04-17 19:22:00,66.9,59.1,30.08,ESE,110,0.0,0.0,76,0.00,,,0.27,WeatherCatV1.11B39,2013-04-17 23:22:00,
2013-04-17 19:27:00,66.8,59.0,30.08,ESE,117,0.0,3.0,76,0.00,,,0.27,WeatherCatV1.11B39,2013-04-17 23:27:00,
2013-04-17 19:32:00,66.7,58.1,30.08,ENE,78,0.0,3.0,74,0.00,,,0.27,WeatherCatV1.11B39,2013-04-17 23:32:00,
2013-04-17 19:37:00,66.8,58.2,30.08,ESE,120,0.0,1.0,74,0.00,,,0.27,WeatherCatV1.11B39,2013-04-17 23:37:00,
2013-04-17 19:42:00,66.7,58.5,30.08,SE,131,0.0,1.0,75,0.00,,,0.27,WeatherCatV1.11B39,2013-04-17 23:42:00,
2013-04-17 19:47:00,66.4,57.9,30.08,SW,214,2.0,3.0,74,0.00,,,0.27,WeatherCatV1.11B39,2013-04-17 23:47:00,
2013-04-17 19:52:00,66.5,57.9,30.08,SE,145,0.0,1.0,74,0.00,,,0.27,WeatherCatV1.11B39,2013-04-17 23:52:00,
2013-04-17 19:57:00,66.4,57.5,30.08,SSE,154,0.0,2.0,73,0.00,,,0.27,WeatherCatV1.11B39,2013-04-17 23:57:00,
2013-04-17 20:02:00,66.1,57.2,30.09,SE,127,1.0,2.0,73,0.00,,,0.27,WeatherCatV1.11B39,2013-04-18 00:02:00,
2013-04-17 20:07:00,66.0,57.1,30.09,SSE,154,0.0,0.0,73,0.00,,,0.27,WeatherCatV1.11B39,2013-04-18 00:07:00,
2013-04-17 20:12:00,65.7,56.8,30.09,SE,139,1.0,1.0,73,0.00,,,0.27,WeatherCatV1.11B39,2013-04-18 00:12:00,
2013-04-17 20:17:00,65.7,56.8,30.09,SE,139,0.0,0.0,73,0.00,,,0.27,WeatherCatV1.11B39,2013-04-18 00:17:00,
2013-04-17 20:22:00,65.5,56.6,30.09,SE,137,1.0,2.0,73,0.00,,,0.27,WeatherCatV1.11B39,2013-04-18 00:22:00,
2013-04-17 20:27:00,65.4,56.5,30.09,SE,136,0.0,0.0,73,0.00,,,0.27,WeatherCatV1.11B39,2013-04-18 00:27:00,
2013-04-17 20:32:00,65.3,56.4,30.09,SSE,160,0.0,1.0,73,0.00,,,0.27,WeatherCatV1.11B39,2013-04-18 00:32:00,
2013-04-17 20:37:00,65.4,56.5,30.09,SE,130,1.0,1.0,73,0.00,,,0.27,WeatherCatV1.11B39,2013-04-18 00:37:00,
2013-04-17 20:42:00,65.2,57.4,30.09,ESE,114,0.0,0.0,76,0.00,,,0.27,WeatherCatV1.11B39,2013-04-18 00:42:00,
2013-04-17 20:47:00,64.8,56.3,30.09,ESE,114,0.0,0.0,74,0.00,,,0.27,WeatherCatV1.11B39,2013-04-18 00:47:00,
2013-04-17 20:52:00,64.7,57.0,30.10,ESE,114,0.0,0.0,76,0.00,,,0.27,WeatherCatV1.11B39,2013-04-18 00:52:00,
2013-04-17 20:57:00,64.5,56.8,30.10,SE,135,0.0,1.0,76,0.00,,,0.27,WeatherCatV1.11B39,2013-04-18 00:57:00,
2013-04-17 21:02:00,64.4,56.3,30.10,SE,135,0.0,0.0,75,0.00,,,0.27,WeatherCatV1.11B39,2013-04-18 01:02:00,
2013-04-17 21:07:00,64.4,56.3,30.10,South,180,0.0,0.0,75,0.00,,,0.27,WeatherCatV1.11B39,2013-04-18 01:07:00,
2013-04-17 21:12:00,64.5,56.0,30.10,East,96,0.0,0.0,74,0.00,,,0.27,WeatherCatV1.11B39,2013-04-18 01:12:00,
2013-04-17 21:17:00,64.6,56.5,30.10,East,96,0.0,0.0,75,0.00,,,0.27,WeatherCatV1.11B39,2013-04-18 01:17:00,
2013-04-17 21:22:00,64.8,56.7,30.10,SE,124,0.0,0.0,75,0.00,,,0.27,WeatherCatV1.11B39,2013-04-18 01:22:00,
2013-04-17 21:27:00,64.5,56.4,30.10,ESE,115,0.0,0.0,75,0.00,,,0.27,WeatherCatV1.11B39,2013-04-18 01:27:00,
2013-04-17 21:32:00,64.5,56.4,30.10,NNE,32,0.0,0.0,75,0.00,,,0.27,WeatherCatV1.11B39,2013-04-18 01:32:00,
2013-04-17 21:37:00,64.5,56.4,30.10,NE,46,0.0,0.0,75,0.00,,,0.27,WeatherCatV1.11B39,2013-04-18 01:37:00,
2013-04-17 21:42:00,64.5,56.4,30.10,NE,46,0.0,0.0,75,0.00,,,0.27,WeatherCatV1.11B39,2013-04-18 01:42:00,
2013-04-17 21:47:00,64.5,56.4,30.10,NE,49,0.0,0.0,75,0.00,,,0.27,WeatherCatV1.11B39,2013-04-18 01:47:00,
2013-04-17 21:52:00,64.3,56.6,30.10,NE,56,0.0,0.0,76,0.00,,,0.27,WeatherCatV1.11B39,2013-04-18 01:52:00,
2013-04-17 21:57:00,64.0,56.3,30.10,NE,56,0.0,0.0,76,0.00,,,0.27,WeatherCatV1.11B39,2013-04-18 01:57:00,
2013-04-17 22:02:00,63.8,56.1,30.10,NE,56,0.0,0.0,76,0.00,,,0.27,WeatherCatV1.11B39,2013-04-18 02:02:00,
2013-04-17 22:07:00,63.6,56.3,30.10,NE,56,0.0,0.0,77,0.00,,,0.27,WeatherCatV1.11B39,2013-04-18 02:07:00,
2013-04-17 22:12:00,63.4,56.4,30.09,NE,56,0.0,0.0,78,0.00,,,0.27,WeatherCatV1.11B39,2013-04-18 02:12:00,
2013-04-17 22:17:00,63.2,56.6,30.09,NE,56,0.0,0.0,79,0.00,,,0.27,WeatherCatV1.11B39,2013-04-18 02:17:00,
2013-04-17 22:22:00,63.0,56.4,30.09,ENE,63,0.0,0.0,79,0.00,,,0.27,WeatherCatV1.11B39,2013-04-18 02:22:00,
2013-04-17 22:27:00,63.0,56.4,30.08,ENE,63,0.0,0.0,79,0.00,,,0.27,WeatherCatV1.11B39,2013-04-18 02:27:00,
2013-04-17 22:32:00,62.8,56.5,30.08,ENE,63,0.0,0.0,80,0.00,,,0.27,WeatherCatV1.11B39,2013-04-18 02:32:00,
2013-04-17 22:37:00,62.6,56.7,30.09,ENE,63,0.0,0.0,81,0.00,,,0.27,WeatherCatV1.11B39,2013-04-18 02:37:00,
2013-04-17 22:42:00,62.4,56.5,30.09,ENE,63,0.0,0.0,81,0.00,,,0.27,WeatherCatV1.11B39,2013-04-18 02:42:00,
2013-04-17 22:47:00,62.3,56.0,30.09,ENE,63,0.0,0.0,80,0.00,,,0.27,WeatherCatV1.11B39,2013-04-18 02:47:00,
2013-04-17 22:52:00,62.2,56.3,30.09,ENE,63,0.0,0.0,81,0.00,,,0.27,WeatherCatV1.11B39,2013-04-18 02:52:00,
2013-04-17 22:57:00,62.0,55.8,30.09,ENE,63,0.0,0.0,80,0.00,,,0.27,WeatherCatV1.11B39,2013-04-18 02:57:00,
2013-04-17 23:02:00,61.9,56.3,30.09,ENE,63,0.0,0.0,82,0.00,,,0.27,WeatherCatV1.11B39,2013-04-18 03:02:00,
2013-04-17 23:07:00,61.8,55.9,30.09,ENE,63,0.0,0.0,81,0.00,,,0.27,WeatherCatV1.11B39,2013-04-18 03:07:00,
2013-04-17 23:12:00,61.7,55.8,30.09,ENE,63,0.0,0.0,81,0.00,,,0.27,WeatherCatV1.11B39,2013-04-18 03:12:00,
2013-04-17 23:17:00,61.6,56.0,30.08,ENE,63,0.0,0.0,82,0.00,,,0.27,WeatherCatV1.11B39,2013-04-18 03:17:00,
2013-04-17 23:22:00,61.6,56.0,30.08,ENE,63,0.0,0.0,82,0.00,,,0.27,WeatherCatV1.11B39,2013-04-18 03:22:00,
2013-04-17 23:27:00,61.6,55.7,30.08,ENE,63,0.0,0.0,81,0.00,,,0.27,WeatherCatV1.11B39,2013-04-18 03:27:00,
2013-04-17 23:32:00,62.1,54.8,30.08,NE,56,0.0,4.0,77,0.00,,,0.27,WeatherCatV1.11B39,2013-04-18 03:32:00,
2013-04-17 23:37:00,63.1,55.4,30.08,NE,37,3.0,4.0,76,0.00,,,0.27,WeatherCatV1.11B39,2013-04-18 03:37:00,
2013-04-17 23:42:00,63.4,55.3,30.08,NE,43,1.0,5.0,75,0.00,,,0.27,WeatherCatV1.11B39,2013-04-18 03:42:00,
2013-04-17 23:47:00,63.5,55.4,30.08,ENE,60,4.0,4.0,75,0.00,,,0.27,WeatherCatV1.11B39,2013-04-18 03:47:00,
2013-04-17 23:52:00,63.5,55.4,30.08,ENE,64,0.0,6.0,75,0.00,,,0.27,WeatherCatV1.11B39,2013-04-18 03:52:00,
2013-04-17 23:57:00,63.4,55.0,30.08,ENE,62,0.0,2.0,74,0.00,,,0.27,WeatherCatV1.11B39,2013-04-18 03:57:00,